Zurück zum Katalog

DELTA 1 DEB

AktivSSO
NORAD 12825·DEBRIS·🇺🇸 United States

Gestartet Mar 5, 1978 von Vandenberg Space Force Base

Loading…

Nächste Überflüge (nächste 24 Stunden)

TLE

AktuellSource: Space-Track

Epoche: Sep 13, 2026, 03:29 UTC

1 12825U 78026EW  26256.14563163 -.00000024  00000-0  16690-4 0  9994
2 12825  99.3475 133.0564 0059153 263.3611 251.0320 13.94962617317220

Verfolge DELTA 1 DEB in Echtzeit mit AllMySat

Download on the App Store